Wind_Speed
5 5 8 9 8 7 7 5 3 2 4 1 1 2 2 5 8 13 18 22 25 28 32 35 39 42 44 46 47 48 49 48 46 45 44 44 46 47 42 43 46 49 52
4 4 5 5 5 6 6 4 2 2 2 3 4 4 6 10 14 20 23 27 31 34 37 40 43 45 48 49 51 51 50 48 46 46 47 48 50 47 46 48 50 53 54
4 2 1 1 3 4 4 4 3 3 4 6 7 9 11 17 22 26 30 33 37 40 43 46 48 49 50 51 50 48 51 49 49 51 52 53 51 50 51 53 55 56 58
6 5 3 2 7 7 7 6 5 7 7 9 10 15 20 23 28 33 36 38 40 44 47 50 51 51 51 50 51 52 53 52 54 56 56 57 56 57 59 62 64 65 68
11 8 6 9 11 9 8 9 7 7 9 11 14 21 23 28 33 38 39 41 44 48 51 53 53 53 51 53 51 55 56 56 58 60 59 59 62 65 65 64 66 70 71
9 12 12 10 12 10 9 7 8 10 13 16 20 25 29 34 38 41 42 44 49 53 52 51 51 48 50 58 57 57 57 60 62 62 61 64 67 69 71 71 72 74 78
8 10 11 13 10 7 8 10 13 15 16 19 24 29 33 37 39 44 45 47 54 54 51 49 52 51 54 61 60 59 62 64 65 65 67 68 70 73 77 80 81 75 70
12 10 10 11 11 9 10 15 16 18 22 26 31 35 38 42 43 46 48 52 56 53 53 50 51 54 62 62 61 64 65 65 66 69 73 76 78 82 82 79 76 72 70
8 4 5 6 9 10 14 18 19 22 27 32 36 40 42 40 43 48 53 55 54 53 54 57 53 56 60 63 65 66 66 69 72 74 77 78 80 81 79 76 72 70 72
8 7 7 10 12 13 16 21 25 30 34 37 41 40 40 42 48 50 52 51 51 53 56 57 57 59 63 64 65 66 70 73 77 79 84 84 85 85 75 71 74 78 84
12 12 14 15 16 18 21 25 29 35 38 39 40 42 43 43 45 51 53 52 54 58 58 57 60 63 63 66 68 71 73 75 78 81 83 85 85 76 72 76 80 82 78
15 17 18 19 20 24 27 31 35 36 39 39 41 41 42 46 51 52 53 53 59 57 58 60 62 61 64 69 73 76 78 80 81 81 83 85 79 72 76 78 73 70 73
18 21 22 22 27 30 32 32 34 34 35 39 38 41 44 51 52 52 53 58 56 58 58 59 61 65 67 72 76 76 78 83 83 85 82 76 76 78 72 67 66 68 67
19 22 23 28 30 31 33 35 37 39 39 43 43 45 51 52 48 52 57 56 56 57 58 61 65 69 73 76 77 80 81 84 86 85 79 78 74 65 61 62 62 62 59
23 25 28 29 30 33 35 36 38 40 43 45 46 50 51 51 51 53 56 56 56 57 60 64 70 73 73 76 81 80 86 88 85 80 77 67 59 55 57 58 58 58 55
28 30 30 32 35 37 40 43 46 46 46 46 47 50 51 52 54 56 56 55 57 57 62 66 73 71 78 79 80 85 87 79 79 77 61 54 55 56 57 57 55 53 48
31 32 34 36 38 41 45 47 47 46 46 49 52 52 53 55 54 52 53 55 63 63 69 68 70 76 82 80 82 83 83 77 65 57 55 53 56 57 57 55 53 48 46
34 35 37 39 42 45 47 47 47 47 50 52 53 54 51 51 53 54 56 60 57 59 75 67 72 76 77 78 80 77 75 61 58 56 53 54 56 56 55 52 49 45 43
35 37 40 43 46 47 47 46 47 50 51 53 53 49 49 51 52 56 55 69 62 72 69 70 72 76 77 78 72 72 63 58 57 53 53 55 56 54 52 49 45 42 41
37 40 44 47 49 49 49 49 50 52 54 54 51 48 50 54 58 59 61 65 65 65 67 69 72 75 75 72 67 61 58 56 54 53 54 55 55 53 49 45 42 39 38
40 43 46 48 48 47 49 51 53 55 55 53 49 50 54 57 61 62 63 64 65 67 68 70 72 75 71 65 59 57 55 55 53 53 55 56 55 52 46 43 40 37 36
44 45 46 46 47 48 50 52 54 54 51 48 50 54 57 60 62 62 62 64 66 68 70 72 74 73 65 60 59 57 57 56 54 55 56 56 52 50 44 41 38 35 35
44 46 47 49 49 50 52 53 52 50 49 51 54 57 60 62 62 63 65 67 70 73 76 77 73 66 60 58 57 57 58 56 55 56 57 55 50 48 43 39 36 34 35
46 48 49 49 51 53 54 54 53 53 53 55 58 61 63 63 65 66 69 73 76 78 78 75 69 62 57 56 57 58 57 59 58 58 58 55 47 47 42 38 35 34 34
49 50 50 51 53 55 55 55 55 55 57 60 63 65 65 66 68 72 75 78 79 78 76 70 64 59 56 57 60 60 60 60 60 61 59 54 46 45 41 37 34 34 33
52 52 53 54 55 56 55 55 57 59 62 65 67 67 68 71 74 76 78 79 77 75 70 64 60 58 60 59 60 62 63 64 65 65 59 51 45 44 40 36 33 33 31
Wind_Direction
174 139 121 111 107 84 78 82 98 5 326 19 130 125 273 282 292 289 285 288 294 299 300 303 307 308 309 311 313 312 309 309 308 306 305 303 303 304 299 295 293 293 294
126 116 123 101 70 42 36 24 19 344 270 191 234 247 263 278 283 287 293 297 302 302 305 307 309 310 313 315 311 309 310 310 309 307 305 305 305 302 299 297 297 296 297
167 174 355 321 2 358 344 327 285 250 240 227 265 276 287 291 295 297 300 303 305 307 311 312 312 313 312 309 309 310 313 308 309 307 306 306 304 300 297 295 295 295 293
238 236 242 278 300 316 313 294 295 287 271 255 271 285 290 293 299 299 301 304 308 310 311 310 311 311 311 311 312 313 313 310 308 309 309 306 303 301 299 296 294 294 293
220 230 248 268 287 298 288 283 289 278 274 270 279 284 292 290 295 297 300 305 309 312 311 311 313 313 312 315 314 313 312 309 310 309 307 304 302 300 298 296 297 297 296
216 228 240 265 267 271 268 262 251 265 276 287 292 292 292 293 294 298 297 306 311 311 311 313 314 313 315 315 314 310 309 308 307 306 304 302 301 300 300 298 298 301 303
248 241 240 237 247 239 248 261 269 273 281 285 289 291 296 298 298 297 299 302 308 311 316 317 319 314 313 311 310 309 308 308 306 303 302 301 300 300 299 301 304 306 308
253 244 244 237 229 243 263 273 286 294 299 299 299 302 303 303 298 299 302 303 305 312 313 314 315 307 307 305 305 305 305 304 301 300 301 301 301 303 307 306 308 310 314
238 225 243 250 264 275 288 298 302 303 301 300 301 304 306 299 294 298 301 303 305 310 313 308 306 303 300 303 304 305 304 302 300 301 301 302 304 308 308 309 312 309 305
245 257 264 272 277 288 295 300 304 300 301 304 307 305 298 291 294 297 299 303 306 307 306 304 303 302 303 304 303 302 301 302 303 304 304 304 306 307 312 311 308 306 308
248 256 264 271 284 291 297 299 296 297 300 301 301 300 295 291 293 298 302 303 301 306 305 304 302 301 302 302 303 302 302 304 305 307 306 305 307 313 312 306 307 311 309
269 274 276 281 286 292 293 293 293 297 299 297 299 300 294 289 290 298 300 297 303 303 301 300 301 303 305 303 302 303 303 305 308 310 311 312 312 307 306 310 311 304 300
268 270 271 269 277 280 282 286 297 302 300 303 299 291 286 287 289 293 292 297 299 298 299 300 302 303 301 301 304 304 306 308 309 310 313 314 306 306 314 311 302 302 306
267 267 271 274 280 287 292 299 301 301 297 299 292 285 282 287 289 290 294 296 298 301 303 305 304 303 304 305 305 305 309 311 313 314 313 306 311 315 309 304 307 310 311
280 283 282 284 288 293 297 297 292 294 295 289 291 293 298 299 295 293 296 301 303 304 306 307 305 304 306 306 307 307 310 313 316 311 308 316 316 312 311 311 312 312 311
283 282 288 293 296 301 303 303 305 304 303 302 301 299 298 297 296 301 302 303 303 304 306 307 307 308 311 311 308 306 311 313 308 310 319 316 320 319 314 312 313 312 310
283 291 295 298 300 301 302 305 306 304 303 303 303 302 300 300 301 301 303 302 304 296 304 306 303 302 307 307 306 309 310 307 315 317 317 318 321 317 313 312 312 311 309
290 292 295 299 300 301 304 303 303 303 303 301 300 300 298 296 300 301 299 306 306 292 301 301 297 302 305 306 306 307 307 314 319 318 316 319 320 317 313 312 312 310 309
289 294 297 298 301 302 300 300 300 300 299 299 299 296 294 297 300 306 295 302 295 298 303 305 305 305 305 304 305 306 310 314 319 314 315 319 321 318 314 312 312 309 311
293 296 299 300 300 300 299 299 301 301 301 301 301 297 299 299 303 305 302 301 303 303 304 304 304 304 303 305 307 305 308 313 314 312 316 319 321 320 314 313 312 309 310
296 296 297 298 299 299 300 301 301 301 302 301 299 299 302 305 306 306 304 301 302 303 305 305 304 303 306 305 301 300 307 309 310 312 315 319 321 320 315 313 311 308 307
296 298 300 300 300 300 300 301 302 302 300 298 300 303 306 307 306 304 301 301 303 304 305 306 308 306 305 302 300 299 305 308 309 311 314 318 319 317 313 311 309 305 304
303 304 304 303 302 302 302 303 302 299 298 301 305 308 309 308 306 303 302 303 304 305 307 309 309 305 301 299 299 300 304 306 307 309 311 315 315 312 310 307 306 301 301
305 305 304 303 303 305 306 305 302 301 302 304 306 309 311 309 306 303 302 303 306 308 309 308 305 303 300 299 298 301 303 304 305 306 309 312 309 305 305 302 300 297 299
305 305 304 305 306 306 305 303 302 302 304 306 308 309 308 306 304 303 304 307 309 308 307 305 304 301 299 299 300 301 302 302 303 304 306 307 301 297 299 295 294 293 295
307 306 306 306 305 305 304 302 302 303 305 307 308 307 306 305 305 306 307 309 308 307 306 305 303 300 300 300 299 300 300 301 301 303 303 300 294 290 291 289 287 288 290
Height
5783 5785 5785 5785 5786 5788 5786 5787 5787 5787 5787 5786 5785 5786 5787 5787 5787 5786 5786 5784 5781 5779 5777 5774 5769 5764 5759 5753 5747 5741 5737 5732 5725 5719 5713 5708 5703 5698 5693 5689 5684 5679 5675
5781 5782 5783 5783 5783 5783 5783 5784 5783 5783 5783 5783 5784 5784 5783 5783 5783 5782 5779 5777 5775 5772 5769 5764 5759 5754 5748 5741 5737 5732 5726 5720 5714 5707 5702 5697 5691 5685 5681 5677 5672 5666 5660
5782 5783 5782 5782 5781 5779 5780 5780 5780 5781 5779 5780 5780 5780 5779 5778 5777 5775 5772 5769 5767 5763 5759 5753 5748 5743 5738 5734 5728 5722 5716 5709 5703 5697 5691 5685 5680 5675 5669 5663 5658 5652 5644
5781 5782 5781 5781 5780 5777 5775 5776 5777 5776 5775 5776 5775 5775 5774 5772 5770 5768 5765 5762 5758 5754 5749 5744 5739 5735 5729 5723 5716 5709 5704 5697 5692 5686 5679 5672 5667 5661 5657 5650 5642 5635 5627
5777 5778 5777 5777 5777 5774 5772 5773 5773 5772 5772 5773 5772 5772 5769 5768 5765 5762 5758 5754 5750 5745 5740 5735 5730 5724 5718 5710 5704 5698 5692 5684 5678 5672 5666 5660 5654 5647 5641 5634 5626 5618 5608
5773 5774 5774 5773 5773 5772 5771 5770 5770 5769 5769 5769 5768 5767 5765 5763 5759 5755 5750 5745 5740 5736 5730 5725 5719 5712 5705 5698 5693 5686 5680 5673 5666 5659 5652 5645 5638 5631 5623 5615 5607 5601 5591
5767 5768 5769 5769 5769 5769 5769 5768 5767 5766 5766 5766 5764 5762 5759 5756 5752 5746 5740 5735 5730 5725 5719 5713 5707 5700 5693 5687 5680 5673 5667 5660 5653 5645 5637 5629 5621 5612 5604 5596 5590 5582 5573
5765 5765 5764 5763 5765 5765 5765 5765 5764 5762 5761 5758 5756 5753 5750 5746 5740 5735 5730 5725 5720 5713 5707 5701 5694 5689 5682 5675 5668 5661 5654 5647 5639 5631 5622 5613 5604 5594 5584 5576 5568 5561 5553
5762 5761 5760 5760 5761 5761 5760 5758 5758 5757 5755 5752 5749 5745 5741 5735 5731 5725 5720 5715 5710 5703 5697 5691 5684 5678 5670 5663 5657 5650 5642 5633 5625 5616 5606 5597 5586 5576 5564 5554 5546 5540 5538
5759 5758 5757 5758 5758 5757 5756 5755 5750 5749 5746 5743 5739 5737 5733 5727 5722 5716 5711 5705 5699 5693 5686 5679 5673 5666 5659 5653 5645 5636 5627 5619 5610 5601 5591 5579 5569 5557 5545 5536 5528 5518 5510
5755 5755 5755 5755 5753 5751 5750 5748 5746 5744 5740 5736 5732 5729 5724 5719 5713 5708 5701 5694 5688 5681 5675 5669 5662 5655 5647 5638 5630 5621 5613 5604 5594 5584 5573 5561 5550 5539 5529 5520 5510 5499 5487
5749 5749 5749 5747 5747 5746 5744 5743 5740 5737 5732 5728 5724 5719 5714 5709 5703 5696 5690 5684 5678 5671 5664 5658 5650 5642 5633 5623 5614 5606 5598 5588 5578 5566 5554 5543 5533 5523 5514 5503 5491 5479 5468
5746 5745 5745 5744 5743 5741 5739 5736 5733 5729 5725 5720 5716 5712 5705 5699 5693 5687 5681 5675 5669 5662 5654 5645 5636 5628 5619 5610 5600 5590 5579 5569 5559 5548 5538 5528 5519 5508 5498 5486 5474 5463 5453
5741 5740 5739 5737 5735 5732 5728 5726 5722 5719 5716 5712 5707 5702 5696 5689 5682 5676 5671 5664 5657 5648 5640 5632 5622 5613 5605 5596 5585 5573 5562 5552 5542 5532 5523 5514 5503 5491 5481 5469 5458 5449 5440
5733 5732 5730 5728 5725 5722 5719 5716 5712 5710 5706 5701 5696 5690 5684 5677 5671 5664 5657 5651 5643 5635 5628 5620 5609 5600 5590 5579 5568 5558 5547 5535 5526 5518 5508 5497 5487 5476 5465 5455 5446 5437 5429
5725 5722 5721 5718 5715 5711 5708 5704 5701 5698 5695 5689 5685 5678 5670 5664 5656 5650 5644 5637 5630 5622 5615 5606 5595 5583 5571 5562 5552 5542 5532 5522 5513 5502 5493 5484 5474 5463 5453 5444 5435 5427 5420
5716 5713 5710 5706 5704 5701 5698 5695 5691 5686 5682 5677 5670 5663 5657 5651 5645 5638 5632 5625 5618 5609 5600 5591 5580 5569 5559 5548 5538 5528 5519 5509 5498 5490 5481 5472 5462 5451 5442 5433 5425 5418 5411
5706 5703 5701 5699 5696 5693 5690 5685 5679 5675 5670 5664 5659 5652 5645 5639 5632 5626 5619 5612 5604 5596 5585 5576 5565 5556 5545 5534 5524 5514 5504 5495 5487 5479 5470 5461 5451 5441 5431 5423 5415 5408 5401
5699 5696 5694 5690 5687 5684 5679 5674 5670 5665 5660 5654 5647 5640 5634 5627 5621 5615 5605 5598 5589 5580 5570 5560 5550 5540 5530 5520 5510 5500 5492 5484 5476 5468 5460 5451 5441 5430 5422 5414 5407 5400 5394
5690 5687 5684 5680 5676 5671 5666 5662 5658 5652 5646 5639 5633 5626 5621 5615 5607 5600 5592 5583 5574 5564 5555 5546 5534 5525 5514 5503 5495 5486 5478 5471 5464 5456 5447 5440 5431 5421 5413 5406 5399 5393 5387
5681 5677 5673 5669 5664 5660 5654 5649 5643 5637 5631 5625 5619 5614 5608 5600 5592 5584 5576 5567 5558 5550 5541 5531 5520 5509 5497 5488 5481 5473 5466 5458 5451 5442 5435 5428 5419 5411 5404 5397 5392 5386 5381
5671 5666 5662 5657 5653 5648 5642 5637 5630 5624 5618 5612 5607 5600 5592 5585 5576 5568 5560 5551 5542 5534 5524 5515 5505 5491 5482 5474 5466 5459 5453 5445 5439 5430 5423 5416 5408 5402 5395 5389 5384 5380 5375
5658 5654 5649 5644 5639 5634 5629 5623 5616 5610 5605 5599 5592 5584 5577 5568 5560 5552 5544 5535 5525 5516 5507 5495 5486 5477 5467 5460 5452 5446 5439 5432 5426 5418 5411 5404 5397 5391 5386 5380 5376 5372 5368
5646 5642 5636 5631 5625 5619 5612 5606 5600 5595 5589 5583 5576 5569 5560 5552 5544 5536 5528 5519 5508 5496 5485 5475 5466 5459 5453 5446 5438 5432 5426 5418 5412 5405 5399 5393 5386 5380 5376 5371 5367 5364 5361
5634 5629 5623 5617 5611 5604 5598 5592 5586 5581 5574 5568 5560 5552 5544 5536 5528 5519 5509 5498 5487 5476 5467 5458 5448 5442 5438 5430 5421 5416 5410 5404 5398 5392 5386 5380 5374 5368 5365 5361 5358 5356 5353
5620 5614 5608 5602 5597 5591 5585 5579 5573 5567 5559 5551 5543 5535 5527 5518 5508 5499 5492 5478 5467 5458 5447 5439 5431 5427 5419 5414 5407 5399 5393 5387 5381 5377 5372 5367 5361 5356 5354 5351 5349 5347 5345